[[{"header":{"parameterUnit":"m.s-1","parameterCategory":1,"la1":30.2991,"la2":30.254,"lo1":-89.0895,"lo2":-89.0444,"dy":0.0017,"dx":0.0017,"nx":28,"ny":28,"refTime":"2025-02-25T09:00:00:Z","depth":0,"parameterNumber":2,"parameterNumberName":"U-component_of_WINDS"},"data":[0,0,0,0,0,0,0,0,0,0,0,0,0,0,0,0,0,0,0,0,0,0,0,0,0,0,0,0,0,0,0,0,0,0,0,0,0,0,0,0,0,0,0,0,0,0,0,0,0,0,0,0,0,0,0,0,0,0,0.7359,0.7358,0,0.7303,0.7302,0.7302,0.7262,0.7262,0.7262,0.7261,0.7203,0.7202,0.7201,0,0,0,0,0,0,0,0,0,0,0,0,0,0.7431,0.7429,0.7359,0.7358,0.7357,0.7303,0.7302,0.7302,0.7262,0.7262,0.7262,0.7261,0.7204,0.7202,0.7201,0,0,0,0,0,0,0,0,0,0,0,0,0,0.739,0.7429,0.7359,0.7331,0.7328,0.7303,0.7302,0.7301,0.7263,0.7262,0.7262,0.7261,0.7204,0.7202,0.72,0.7198,0,0,0.7195,0.7194,0,0,0,0,0,0,0,0,0.7392,0.7387,0.7336,0.7333,0.733,0.7289,0.7306,0.7267,0.7263,0.7287,0.7261,0.7261,0.7232,0.7228,0.7218,0.7195,0.7193,0.7194,0.7193,0.7192,0.7192,0,0,0,0,0,0,0,0.7395,0.7389,0.7337,0.7335,0.7331,0.7322,0.7315,0.7299,0.7263,0.7285,0.7282,0.7276,0.723,0.722,0.7217,0.7192,0.7194,0.7193,0.7192,0.7191,0.7165,0.7165,0,0,0,0,0,0,0.7402,0.7392,0.7338,0.7335,0.736,0.7321,0.7314,0.7303,0.7263,0.7257,0.7277,0.7275,0.7224,0.7219,0.7214,0.7209,0.7192,0.7191,0.719,0.7164,0.7165,0.7165,0,0,0,0,0,0,0.7404,0.7398,0.7341,0.7363,0.7354,0.732,0.7308,0.7302,0.7292,0.7257,0.725,0.7273,0.7223,0.7217,0.7203,0.7207,0.719,0.7188,0.7164,0.7164,0.7165,0.7199,0,0,0,0,0,0,0.7406,0.7399,0.7397,0.7363,0.7353,0.733,0.7308,0.7301,0.7289,0.7286,0.7251,0.7245,0.7222,0.7206,0.7201,0.7204,0.7187,0.7163,0.7164,0.7165,0.7198,0.7201,0.7204,0,0,0,0,0,0.7409,0.7409,0.7397,0.7391,0.7351,0.733,0.7325,0.7299,0.7289,0.7288,0.7265,0.7246,0.7207,0.7204,0.7199,0.7201,0.7163,0.7164,0.7165,0.7196,0.72,0.7204,0,0,0,0,0,0,0.7444,0.7404,0.7391,0.7379,0.7359,0.7324,0.7321,0.7304,0.7285,0.7282,0.725,0.7243,0.7232,0.7215,0.7213,0.7197,0.7183,0.7183,0.7209,0.7212,0.7215,0.722,0.7185,0,0,0,0,0,0.745,0.7437,0.7402,0.7396,0.7386,0.7356,0.7345,0.7327,0.7304,0.7295,0.7271,0.7249,0.7232,0.7221,0.7203,0.7195,0.7187,0.7194,0.7197,0.72,0.72,0.7195,0.7198,0.7168,0.7168,0.7168,0,0,0.7463,0.744,0.7433,0.7402,0.7384,0.7371,0.7348,0.7335,0.7325,0.7292,0.7278,0.726,0.7233,0.7222,0.7216,0.7207,0.7207,0.7201,0.7204,0.7202,0.7197,0.72,0.7202,0.7169,0.7169,0.7169,0,0,0.7481,0.7462,0.7454,0.7437,0.741,0.7389,0.7388,0.7356,0.7343,0.7327,0.7303,0.7291,0.7261,0.7244,0.7231,0.7243,0.7225,0.7238,0.7254,0.725,0.7252,0.7254,0.7259,0.7261,0.7238,0.7238,0.7238,0,0.75,0.748,0.7453,0.7441,0.7428,0.74,0.7392,0.7376,0.7345,0.7337,0.7328,0.7292,0.7271,0.7256,0.7259,0.725,0.7247,0.7241,0.7254,0.7256,0.7257,0.7262,0.7263,0.724,0.724,0.724,0.724,0,0.7505,0.7492,0.7489,0.746,0.7447,0.7438,0.7409,0.7399,0.7383,0.7363,0.7349,0.7324,0.7301,0.7296,0.7279,0.7278,0.7274,0.726,0.7245,0.7263,0.7266,0.7267,0.7243,0.7242,0.7242,0.7241,0,0,0.7542,0.7499,0.7499,0.7486,0.7454,0.7443,0.7433,0.7411,0.7403,0.7383,0.7373,0.735,0.7337,0.7323,0.7304,0.73,0.7312,0.7287,0.7286,0.7293,0.731,0.7321,0.7323,0.73,0.73,0.73,0.7313,0,0.7555,0.7535,0.7511,0.7499,0.7486,0.7459,0.745,0.743,0.7412,0.7398,0.7378,0.7362,0.7347,0.7338,0.7333,0.7312,0.7315,0.731,0.7291,0.7291,0.7299,0.7325,0.7336,0.7348,0.7314,0.7314,0.7314,0,0.7567,0.7548,0.7536,0.7506,0.75,0.7492,0.7471,0.7458,0.7435,0.7422,0.7407,0.7387,0.7375,0.7361,0.7344,0.7342,0.7332,0.7321,0.732,0.7318,0.7303,0.7323,0.7352,0.7354,0.7316,0.7316,0.7315,0,0.7595,0.7568,0.7557,0.7546,0.7511,0.7507,0.7492,0.7468,0.7457,0.7438,0.7431,0.7411,0.74,0.7385,0.736,0.7353,0.7346,0.733,0.7335,0.7336,0.7334,0.7335,0.7362,0.7328,0.7328,0.7328,0.7328,0,0.7612,0.7605,0.7569,0.7562,0.7554,0.7527,0.752,0.7502,0.7482,0.7471,0.7447,0.7437,0.7405,0.7392,0.7372,0.7361,0.7357,0.7346,0.7341,0.7348,0.735,0.7342,0.734,0.7329,0.7329,0.7329,0.7329,0,0.7643,0.7618,0.7604,0.7573,0.7565,0.7561,0.7534,0.7526,0.7507,0.7494,0.749,0.746,0.7443,0.7417,0.7392,0.7379,0.7372,0.7363,0.738,0.7377,0.7383,0.7383,0.7407,0.7409,0.7374,0.7374,0.7374,0,0.7655,0.7649,0.7618,0.7609,0.7596,0.7582,0.7571,0.7544,0.7533,0.7507,0.7503,0.7484,0.7468,0.7443,0.7419,0.74,0.7391,0.7401,0.7388,0.7396,0.7391,0.7392,0.7392,0.7403,0.7404,0.7404,0.7405,0,0.7679,0.7668,0.7653,0.7634,0.7621,0.7605,0.7587,0.7582,0.7551,0.754,0.7523,0.7511,0.7486,0.7468,0.7446,0.7431,0.7413,0.7409,0.7409,0.7417,0.7427,0.7422,0.7388,0.7409,0.7408,0.7408,0.7408,0.7408,0.7701,0.7695,0.7673,0.7657,0.7641,0.7625,0.7617,0.7598,0.7583,0.7562,0.7546,0.7531,0.7508,0.7477,0.7463,0.745,0.7442,0.7442,0.7442,0.7443,0.7446,0.7429,0.7446,0.7446,0.7446,0.7446,0.7445,0,0.7725,0.7709,0.7695,0.7672,0.766,0.7644,0.7624,0.7615,0.7601,0.7582,0.7567,0.7548,0.7531,0.7506,0.7487,0.7482,0.7473,0.7478,0.7478,0.7475,0.7454,0.7456,0.7485,0.7485,0.7485,0.7485,0.7485,0.7485,0.7736,0.7725,0.7711,0.7693,0.7677,0.7662,0.7652,0.7637,0.7622,0.7602,0.7588,0.7572,0.7551,0.753,0.7514,0.7507,0.7501,0.7509,0.7499,0.748,0.7476,0.7473,0.7474,0.7508,0.7508,0.7521,0.7522,0.7522]},{"header":{"parameterUnit":"m.s-1","parameterCategory":1,"la1":30.2991,"la2":30.254,"lo1":-89.0895,"lo2":-89.0444,"dy":0.0017,"dx":0.0017,"nx":28,"ny":28,"refTime":"2025-02-25T09:00:00:Z","depth":0,"parameterNumber":3,"parameterNumberName":"V-component_of_WINDS"},"data":[0,0,0,0,0,0,0,0,0,0,0,0,0,0,0,0,0,0,0,0,0,0,0,0,0,0,0,0,0,0,0,0,0,0,0,0,0,0,0,0,0,0,0,0,0,0,0,0,0,0,0,0,0,0,0,0,0,0,-2.2111,-2.2112,0,-2.2186,-2.2187,-2.2188,-2.2203,-2.2203,-2.2202,-2.2202,-2.2275,-2.2277,-2.228,0,0,0,0,0,0,0,0,0,0,0,0,0,-2.198,-2.1983,-2.2111,-2.2112,-2.2113,-2.2186,-2.2187,-2.2188,-2.2204,-2.2203,-2.2202,-2.2202,-2.2274,-2.2277,-2.228,0,0,0,0,0,0,0,0,0,0,0,0,0,-2.2044,-2.1983,-2.2111,-2.213,-2.2132,-2.2186,-2.2187,-2.2188,-2.2204,-2.2203,-2.2202,-2.2201,-2.2273,-2.2277,-2.228,-2.2319,0,0,-2.2292,-2.2293,0,0,0,0,0,0,0,0,-2.204,-2.2049,-2.2126,-2.2129,-2.2131,-2.2185,-2.2167,-2.2232,-2.2204,-2.2176,-2.2202,-2.2201,-2.2245,-2.2251,-2.2267,-2.2323,-2.2326,-2.2292,-2.2294,-2.2296,-2.2297,0,0,0,0,0,0,0,-2.2036,-2.2046,-2.2141,-2.2127,-2.213,-2.2134,-2.2142,-2.218,-2.2214,-2.2179,-2.218,-2.2189,-2.2247,-2.2263,-2.2269,-2.2327,-2.2292,-2.2295,-2.2297,-2.2299,-2.242,-2.2421,0,0,0,0,0,0,-2.2029,-2.2042,-2.2138,-2.2143,-2.2083,-2.2137,-2.2146,-2.2168,-2.2214,-2.222,-2.219,-2.2189,-2.2257,-2.2264,-2.2271,-2.2321,-2.2296,-2.2299,-2.2301,-2.2419,-2.242,-2.2421,0,0,0,0,0,0,-2.2026,-2.2037,-2.2135,-2.2093,-2.2106,-2.214,-2.2165,-2.217,-2.2187,-2.2222,-2.2228,-2.22,-2.2257,-2.2266,-2.2308,-2.2324,-2.2301,-2.2304,-2.2418,-2.2419,-2.2421,-2.242,0,0,0,0,0,0,-2.2022,-2.2036,-2.2051,-2.2093,-2.2108,-2.2171,-2.2166,-2.2172,-2.2194,-2.2194,-2.2234,-2.224,-2.2257,-2.2302,-2.2312,-2.2329,-2.2307,-2.2417,-2.2419,-2.242,-2.2419,-2.2422,-2.2424,0,0,0,0,0,-2.2017,-2.2047,-2.2052,-2.2064,-2.2128,-2.2172,-2.218,-2.2201,-2.2195,-2.2211,-2.2234,-2.2239,-2.2321,-2.2306,-2.2317,-2.2335,-2.2416,-2.2418,-2.242,-2.2418,-2.2421,-2.2424,0,0,0,0,0,0,-2.2005,-2.2053,-2.2059,-2.2103,-2.2134,-2.2175,-2.2195,-2.2203,-2.2235,-2.2234,-2.2256,-2.2265,-2.2306,-2.2325,-2.2308,-2.2376,-2.2368,-2.2372,-2.2362,-2.2366,-2.2368,-2.2363,-2.231,0,0,0,0,0,-2.2008,-2.204,-2.208,-2.2115,-2.213,-2.216,-2.218,-2.2193,-2.2225,-2.2238,-2.2263,-2.2293,-2.2326,-2.2347,-2.2379,-2.2422,-2.2431,-2.244,-2.2442,-2.2444,-2.2448,-2.2473,-2.2478,-2.2429,-2.2429,-2.2429,0,0,-2.2013,-2.2043,-2.2062,-2.2114,-2.2139,-2.2172,-2.2171,-2.2205,-2.223,-2.2242,-2.2284,-2.2304,-2.2339,-2.2382,-2.2402,-2.2399,-2.2463,-2.2447,-2.2448,-2.2451,-2.2476,-2.2481,-2.2485,-2.243,-2.243,-2.243,0,0,-2.204,-2.2066,-2.2099,-2.2125,-2.2163,-2.2183,-2.2191,-2.2231,-2.2246,-2.2288,-2.2299,-2.2328,-2.2384,-2.2409,-2.2428,-2.2467,-2.2473,-2.2476,-2.2489,-2.2513,-2.2517,-2.2521,-2.2535,-2.254,-2.248,-2.248,-2.248,0,-2.2041,-2.2092,-2.2115,-2.2149,-2.2172,-2.2187,-2.2221,-2.2244,-2.229,-2.2306,-2.2302,-2.2373,-2.2397,-2.2447,-2.2457,-2.2472,-2.2482,-2.2472,-2.2515,-2.2519,-2.2523,-2.2537,-2.2542,-2.248,-2.248,-2.248,-2.248,0,-2.2093,-2.2128,-2.215,-2.2196,-2.2221,-2.2255,-2.2283,-2.2305,-2.2317,-2.2337,-2.238,-2.2411,-2.245,-2.2462,-2.2473,-2.2514,-2.2511,-2.2511,-2.2503,-2.2527,-2.2541,-2.2546,-2.248,-2.248,-2.248,-2.248,0,0,-2.2112,-2.2173,-2.2181,-2.2203,-2.2247,-2.2274,-2.2309,-2.2349,-2.2368,-2.24,-2.243,-2.2478,-2.2478,-2.2501,-2.2515,-2.2536,-2.2566,-2.2534,-2.2535,-2.2539,-2.2614,-2.2615,-2.2621,-2.257,-2.2572,-2.2572,-2.2612,0,-2.2145,-2.221,-2.2232,-2.2284,-2.2318,-2.2333,-2.2364,-2.2394,-2.2414,-2.2445,-2.2466,-2.25,-2.2498,-2.2512,-2.2534,-2.2558,-2.2581,-2.2555,-2.2598,-2.26,-2.259,-2.2628,-2.2628,-2.2663,-2.2617,-2.2618,-2.2619,0,-2.2192,-2.2227,-2.2283,-2.2325,-2.234,-2.2367,-2.2406,-2.2435,-2.247,-2.2484,-2.251,-2.2523,-2.2559,-2.2549,-2.2601,-2.2582,-2.2601,-2.2616,-2.2618,-2.2623,-2.2611,-2.2634,-2.2675,-2.2681,-2.2627,-2.2626,-2.2626,0,-2.2202,-2.2263,-2.2305,-2.2323,-2.2373,-2.2392,-2.2413,-2.2448,-2.2471,-2.2505,-2.252,-2.2557,-2.2577,-2.2605,-2.2627,-2.2618,-2.2677,-2.2669,-2.2689,-2.2688,-2.2701,-2.27,-2.2746,-2.2712,-2.2712,-2.2712,-2.2712,0,-2.2237,-2.2271,-2.2311,-2.2336,-2.2375,-2.2401,-2.2438,-2.246,-2.2491,-2.2521,-2.2536,-2.2564,-2.2592,-2.2623,-2.2641,-2.2681,-2.269,-2.2701,-2.2706,-2.2701,-2.2699,-2.2713,-2.2712,-2.2713,-2.2713,-2.2713,-2.2712,0,-2.2254,-2.2282,-2.233,-2.2374,-2.2386,-2.2413,-2.245,-2.2476,-2.2497,-2.2536,-2.2546,-2.2579,-2.2617,-2.2642,-2.269,-2.2702,-2.2746,-2.275,-2.2735,-2.2737,-2.2757,-2.2755,-2.2814,-2.2823,-2.2782,-2.2783,-2.2783,0,-2.2275,-2.2302,-2.235,-2.2372,-2.2394,-2.2429,-2.2454,-2.248,-2.2504,-2.2547,-2.2568,-2.2607,-2.264,-2.27,-2.2728,-2.2765,-2.277,-2.2788,-2.2775,-2.277,-2.2771,-2.2769,-2.2773,-2.279,-2.279,-2.279,-2.2791,0,-2.2309,-2.2322,-2.2357,-2.2397,-2.2426,-2.2459,-2.2491,-2.2508,-2.254,-2.2567,-2.2607,-2.2632,-2.2683,-2.2722,-2.2762,-2.2783,-2.2792,-2.2795,-2.2801,-2.2796,-2.2787,-2.2794,-2.2741,-2.2793,-2.2793,-2.2793,-2.2792,-2.2792,-2.2329,-2.2354,-2.2393,-2.2432,-2.2459,-2.249,-2.2517,-2.2543,-2.2577,-2.2621,-2.2634,-2.2676,-2.2711,-2.2766,-2.2789,-2.2821,-2.2819,-2.2829,-2.2832,-2.2834,-2.2834,-2.2782,-2.2829,-2.2829,-2.2829,-2.2829,-2.2828,0,-2.2364,-2.239,-2.2426,-2.2472,-2.2503,-2.2511,-2.2547,-2.2572,-2.261,-2.2643,-2.2675,-2.2722,-2.276,-2.2792,-2.2832,-2.2852,-2.2857,-2.2861,-2.286,-2.2865,-2.2833,-2.2824,-2.2857,-2.2857,-2.2857,-2.2857,-2.2857,-2.2857,-2.2386,-2.243,-2.2448,-2.2506,-2.2531,-2.2574,-2.2595,-2.2623,-2.265,-2.2702,-2.2734,-2.2755,-2.2788,-2.283,-2.2866,-2.2874,-2.2888,-2.2892,-2.2901,-2.2871,-2.2867,-2.2864,-2.2856,-2.2895,-2.2895,-2.2931,-2.2931,-2.2931]}]]